Tracking 27112 objects as of 27-Mar-2023
HD Live streaming from Space Station
objects crossing your sky now

THOR 2A

Track THOR 2A now!
THOR 2A is classified as:


NORAD ID: 24808
Int'l Code: 1997-025A
Perigee: 36,138.5 km
Apogee: 36,185.3 km
Inclination: 10.1 °
Period: 1,454.9 minutes
Semi major axis: 42532 km
RCS: 15.8489 m2 (large)
Launch date: May 20, 1997
Source: Norway (NOR)
Launch site: AIR FORCE EASTERN TEST RANGE (AFETR)

15 Ku-band; Nordic region, northern Europe.
Your satellite tracking list
Your tracking list is empty




NASA's NSSDC Master Catalog

Two Line Element Set (TLE):
1 24808U 97025A   23085.63556043 -.00000042  00000-0  00000-0 0  9992
2 24808  10.0859  40.6190 0005491 337.4891 238.5792  0.98972707 34418
Source of the keplerian elements: AFSPC